Regional Weather Roundup
Issued by NWS Grand Forks, ND

Home | Current Version | Previous Version | Text Only | Print | Product List | Glossary Off
Versions: 1 2 3 4 5 6 7 8 9 10 11 12 13 14 15 16 17 18 19 20 21 22 23 24 25 26 27 28 29 30 31 32 33 34 35 36 37 38 39 40 41 42 43 44 45 46 47 48 49 50

150
ASUS43 KFGF 241310
RWRFGF
PRAIRIE TO PINES  WEATHER ROUNDUP
NATIONAL WEATHER SERVICE EASTERN NORTH DAKOTA/GRAND FORKS ND
800 AM CDT MON APR 24 2017

 **SATELLITE DATA USED TO AUGMENT SKY COVER AT AUTOMATED STATIONS**
 *****  WEATHER ACROSS EASTERN NORTH DAKOTA  *****

CITY           SKY/WX    TMP DP  RH WIND       PRES   REMARKS
GRAND FORKS    CLOUDY    36  33  89 NE9       29.74R
GRAND FRKS AFB FAIR      34  31  91 NE9       29.74S
DEVILS LAKE    NOT AVBL
FARGO          PTSUNNY   38  32  79 N10       29.65F
WAHPETON ARPT  FAIR      43  34  70 SE12      29.61S
$$

 ***** WEATHER ACROSS CENTRAL AND WESTERN NORTH DAKOTA  *****

CITY           SKY/WX    TMP DP  RH WIND       PRES   REMARKS
BISMARCK       LGT RAIN  34  32  92 NE8       29.68R
MINOT          CLOUDY    30  26  85 NE8       29.73S WCI  22
JAMESTOWN      CLOUDY    33  31  92 NE16G28   29.57F WCI  23
MINOT AFB      FLURRIES  30  25  82 NE9       29.73S WCI  21
GARRISON         N/A     30  28  92 NE10      29.69S WCI  21
WILLISTON      LGT SNOW  31  28  89 NE7       29.73S FOG     WCI  24
DICKINSON      FOG       28  27  96 NE6       29.66R VSB 3/4 WCI  22
HETTINGER      CLOUDY    31  29  92 N10       29.64R WCI  22
$$

 *****  OTHER AIRPORT OBSERVATIONS IN OUR AREA  *****

CITY           SKY/WX    TMP DP  RH WIND       PRES   REMARKS
WALHALLA       NOT AVBL
GRAFTON AIRPOR CLOUDY    34  32  93 NE14      29.80S WCI  24
VALLEY CITY AR DRIZZLE   32  32 100 NE18G24   29.60F WCI  20
CANDO          NOT AVBL
CAVALIER APRT  CLOUDY    34  28  80 E14G21    29.80S WCI  24
GWINNER        SUNNY     37  36  93 MISG      29.58F
SHEYENNE NWR     N/A     36  31  82 NE8       29.95S
ROLLA          CLOUDY    28  18  64 NE15G22   29.76F WCI  17
 ***** THE ABOVE OBSERVATIONS ARE NON NWS ARE NOT QUALITY
       CONTROLLED AND MAY MIS-REPORT RAIN FOR SNOW...
$$

  *****  WEATHER ACROSS NORTHERN MINNESOTA  *****

CITY           SKY/WX    TMP DP  RH WIND       PRES   REMARKS
FLAG ISLAND    LGT SNOW  30  27  86 E10G17    29.89F WCI  21
WARROAD        CLOUDY    34  30  86 E24G31    29.83F WCI  21
ROSEAU         CLOUDY    34  28  80 E17G26    29.83S WCI  23
HALLOCK        CLOUDY    36  28  75 E18G24    29.79F
THF RVR FALLS  CLOUDY    34  30  85 E15       29.76S WCI  24
BAUDETTE       MIX PCPN  32  28  85 E15G30    29.84F WCI  22
WASKISH        FAIR      30  28  93 E15G23    29.80F WCI  19
CROOKSTON      FAIR      36  30  80 E16       29.74R
STEPHEN NDAWN    N/A     34  30  86 E16         N/A  WCI  23
GREENBUSH NDAW   N/A     34  30  86 E16         N/A  WCI  23
$$
  *****  WEATHER ACROSS CENTRAL AND WEST MINNESOTA  *****

CITY           SKY/WX    TMP DP  RH WIND       PRES   REMARKS
FOSSTON        FAIR      34  27  75 E13G18    29.72R WCI  25
BEMIDJI        CLOUDY    33  29  85 E15G21    29.75S WCI  23
PARK RAPIDS    FAIR      36  27  69 E9        29.72S
ELBOW LAKE     FAIR      47  36  64 SE14G21   29.63F
WADENA         FAIR      36  30  80 E13       29.69F
DETROIT LAKES  FAIR      37  32  81 SE14      29.68F
MOORHEAD       FAIR      39  32  75 NE6       29.65S
FERGUS FALLS   FAIR      43  34  70 SE15      29.62F
MORRIS MN      FAIR      48  37  66 SE17      29.62F
STAPLES        FAIR      36  30  80 E9        29.72F
$$
  *****  WEATHER ELSEWHERE ACROSS MINNESOTA  *****

CITY           SKY/WX    TMP DP  RH WIND       PRES   REMARKS
DULUTH         PTSUNNY   33  26  75 E22G30    29.88F WCI  21
INTRNTL FALLS  MIX PCPN  31  27  85 E14G22    29.90S WCI  21
ELY            FAIR      28  23  80 E10G20    29.93S WCI  19
CLOQUET        FAIR      34  27  75 E14G23    29.86F WCI  24
WHEATON        FAIR      46  37  71 SE14      29.61S
BRAINERD       FAIR      39  33  79 VRB7      29.76F
HIBBING        FAIR      31  26  82 E15       29.86F WCI  20
ALEXANDRIA     FAIR      41  35  79 SE13      29.68F
SAINT CLOUD    FAIR      42  36  79 E9        29.75F
MINNEAPOLIS    CLOUDY    56  34  43 S9        29.80F
$$

  *****  WEATHER ACROSS SOUTH DAKOTA  *****

CITY           SKY/WX    TMP DP  RH WIND       PRES   REMARKS
SIOUX FALLS    CLOUDY    53  37  54 S18G30    29.64F
BROOKINGS      FAIR      50  36  58 S15       29.62F
WATERTOWN      FAIR      50  36  58 S17       29.58F
HURON          FAIR      52  38  58 S13G23    29.53F
SISSETON         N/A     48  41  76 SE6       29.56F
ABERDEEN       FAIR      41  36  82 NE7       29.54F
MITCHELL       FAIR      53  38  56 S14       29.57S
PIERRE         PTSUNNY   41  37  86 NW18      29.55R
MOBRIDGE       LGT RAIN  38  33  82 N13       29.58R
RAPID CITY     FOG       37  36  96 N18       29.61R VSB 1/4
$$

  *****  SOME WEATHER IN NEARBY STATES *****

CITY           SKY/WX    TMP DP  RH WIND       PRES   REMARKS
GLASGOW MT     CLOUDY    32  30  92 E8        29.70R WCI  25
GREAT FALLS MT MOCLDY    38  34  85 SW8       29.65S
CHEYENNE WY    FAIR      45  29  53 NW20G26   29.74R
SCOTTSBLUFF NE FAIR      52  39  61 NW12      29.64R
OMAHA NE       PTSUNNY   55  36  48 S22G28    29.77F
DES MOINES IA  CLOUDY    52  36  54 SE12      29.87F
DAVENPORT IA   FAIR      50  36  58 E7        29.99R
CHICAGO IL     FAIR      47  39  74 NE5       30.02S
EAU CLAIRE WI  FAIR      42  34  73 SE8       29.90S
LA CROSSE WI   FAIR      48  39  71 E9        29.92S
$$

  *****  SOME NATIONAL WEATHER *****

CITY           SKY/WX    TMP DP  RH WIND       PRES   REMARKS
LA GUARDIA NY  PTSUNNY   53  44  71 VRB5      30.17S
RALEIGH NC     RAIN      54  52  93 NE9       29.89S FOG
ATLANTA GA     DRIZZLE   53  51  93 NE8       29.76S FOG
NEW ORLEANS LA FAIR      59  53  80 W10       29.93R
OKLAHOMA CITY  FAIR      49  42  77 S9        29.90F
ALBUQUERQUE NM FAIR      51  30  44 SE8       29.91R
SALT LAKE CITY MOCLDY    52  39  61 SE15      29.70F
LOS ANGELES CA FAIR      59  53  80 CALM      29.88S
BOISE ID       LGT RAIN  48  42  80 S8        29.70F
SEATTLE WA     LGT RAIN  45  43  93 SE5       29.74F
$$

*** WEATHER ACROSS MANITOBA...SASKATCHEWAN AND ONTARIO ***
                ***ONTARIO***

CITY           SKY/WX    TMP DP  RH WIND       PRES   REMARKS
GERALDTON      PTSUNNY   25  12  58 E6        30.19R WCI  18
THUNDER BAY    FLURRIES  30  28  93 E15       30.10F WCI  19
SIOUX LOOKOUT  CLOUDY    28  16  59 E8        30.05S WCI  20
TORONTO        MOSUNNY   46  36  66 E12       30.18S
BIG TROUT LK   SUNNY      9  -2  61 E6        30.31S WCI  -1
PICKLE LAKE    MOSUNNY   18   7  62 E8        30.17R WCI   7
DRYDEN         CLOUDY    28  21  74 E12       29.99F WCI  18
KENORA         PTSUNNY   30  18  59 E12G20    29.93F WCI  21
$$
                *** MANITOBA***

CITY           SKY/WX    TMP DP  RH WIND       PRES   REMARKS
BRANDON        CLOUDY    32  18  55 NE21G26   29.85F WCI  20
DAUPHIN        CLOUDY    28  23  80 E13       29.98R WCI  18
ISLAND LAKE    NOT AVBL
PILOT MOUND      N/A     30  18  59 E20G25      N/A  WCI  18
THE PAS        CLOUDY    23   7  50 E13       30.13R WCI  11
THOMPSON       MOSUNNY    7  -6  56 E3        30.27R
WINNIPEG       CLOUDY    32  16  51 NE17      29.88F WCI  21
LYNN LAKE      SUNNY      1  -8  66 E8        30.21S WCI -12
CHURCHILL      MOSUNNY  -13 -18  77 W7        30.43S WCI -29
GILLAM         MOSUNNY    0  -8  71 E7        30.37R WCI -13
$$
                ***SASKATCHEWAN***

CITY           SKY/WX    TMP DP  RH WIND       PRES   REMARKS
ESTEVAN        SNOW      27  25  93 E16       29.78R VSB 1/2 WCI  14
KINDERSLEY     CLOUDY    30  30 100 E14       29.71S WCI  20
LLOYDMINSTER   FRZ RAIN  30  30 100 E13       29.77R WCI  20
PRINCE ALBERT  LGT SNOW  28  27  93 E14       29.92R FOG     WCI  17
REGINA         FLURRIES  27  23  86 E18G25    29.81R WCI  13
YORKTON        LGT SNOW  27  25  93 E12       29.91S VSB 3/4 WCI  16
N. BATTLEFORD  CLOUDY    30  30 100 SE15G21   29.82S WCI  19
LA RONGE       CLOUDY    25  10  54 E8        30.02R WCI  16
SASKATOON      CLOUDY    30  28  93 SE18      29.84S WCI  18
SWIFT CURRENT  CLOUDY    28  28 100 SE13      29.68S FOG     WCI  18
$$
NOTE: THESE ARE AUTOMATED STATIONS WITH LIMITED QUALITY CONTROL
      "FAIR" INDICATES FEW OR NO CLOUDS BELOW 12,000 FEET WITH NO
      SIGNIFICANT WEATHER AND/OR OBSTRUCTIONS TO VISIBILITY.
      SKY/WX - SKY CONDITION AND SIGNIFICANT WEATHER.
      TMP - AIR TEMPERATURE.    DP   - DEWPOINT TEMPERATURE.
      RH  - RELATIVE HUMIDITY.  PRES - PRESSURE.
      HX  - HEAT INDEX.         WCI  - WIND CHILL INDEX.
$




USA.gov is the U.S. government's official web portal to all federal, state and local government web resources and services.